TimeEST,TemperatureF,Dew PointF,Humidity,Sea Level PressureIn,VisibilityMPH,Wind Direction,Wind SpeedMPH,Gust SpeedMPH,PrecipitationIn,Events,Conditions,WindDirDegrees,DateUTC
12:51 AM,32.0,23.0,69,30.20,10.0,North,6.9,-,N/A,,Mostly Cloudy,10,2012-11-06 05:51:00
1:51 AM,32.0,21.0,64,30.20,10.0,North,6.9,-,N/A,,Clear,360,2012-11-06 06:51:00
2:51 AM,30.0,21.0,69,30.20,10.0,North,5.8,-,N/A,,Clear,350,2012-11-06 07:51:00
3:51 AM,30.0,21.0,69,30.20,10.0,North,6.9,-,N/A,,Clear,10,2012-11-06 08:51:00
4:51 AM,30.0,21.0,69,30.20,10.0,North,4.6,-,N/A,,Clear,360,2012-11-06 09:51:00
5:51 AM,28.4,19.4,69,30.20,10.0,North,3.5,-,N/A,,Clear,10,2012-11-06 10:51:00
6:51 AM,28.9,19.9,69,30.23,10.0,North,3.5,-,N/A,,Clear,350,2012-11-06 11:51:00
7:51 AM,33.1,24.1,70,30.23,10.0,NNE,5.8,-,N/A,,Mostly Cloudy,20,2012-11-06 12:51:00
8:51 AM,37.0,23.0,57,30.23,10.0,NE,10.4,-,N/A,,Overcast,40,2012-11-06 13:51:00
9:51 AM,37.9,23.0,55,30.23,10.0,NNE,10.4,-,N/A,,Overcast,20,2012-11-06 14:51:00
10:51 AM,39.9,23.0,51,30.24,10.0,NE,5.8,-,N/A,,Overcast,40,2012-11-06 15:51:00
11:51 AM,41.0,25.0,53,30.20,10.0,NE,8.1,-,N/A,,Overcast,50,2012-11-06 16:51:00
12:51 PM,43.0,26.1,51,30.17,10.0,NE,11.5,-,N/A,,Overcast,50,2012-11-06 17:51:00
1:51 PM,42.8,26.6,53,30.14,10.0,NE,11.5,-,N/A,,Overcast,50,2012-11-06 18:51:00
2:51 PM,45.0,27.0,49,30.13,10.0,NE,11.5,-,N/A,,Scattered Clouds,40,2012-11-06 19:51:00
3:51 PM,43.0,27.0,53,30.12,10.0,NNE,11.5,-,N/A,,Clear,30,2012-11-06 20:51:00
4:51 PM,42.8,26.6,53,30.12,10.0,NE,8.1,-,N/A,,Mostly Cloudy,50,2012-11-06 21:51:00
5:51 PM,39.0,27.0,62,30.11,10.0,NNE,5.8,-,N/A,,Clear,20,2012-11-06 22:51:00
6:51 PM,37.9,27.0,65,30.11,10.0,NNE,5.8,-,N/A,,Clear,20,2012-11-06 23:51:00
7:51 PM,39.9,27.0,60,30.08,10.0,NE,10.4,-,N/A,,Clear,50,2012-11-07 00:51:00
8:51 PM,39.9,25.0,55,30.10,10.0,ENE,9.2,-,N/A,,Clear,60,2012-11-07 01:51:00
9:51 PM,39.9,23.0,51,30.09,10.0,ENE,9.2,-,N/A,,Clear,60,2012-11-07 02:51:00
10:51 PM,39.0,27.0,62,30.06,10.0,NNE,8.1,-,N/A,,Clear,20,2012-11-07 03:51:00
11:51 PM,39.0,24.1,55,30.05,10.0,NNE,9.2,-,N/A,,Clear,20,2012-11-07 04:51:00